Terug naar catalogus

SL-6 R/B(2)

ActiefHEO
NORAD 22192·ROCKET BODY·🇷🇺 Russia

Gelanceerd Oct 21, 1992 vanaf Plesetsk Cosmodrome

Loading…

Volgende Passages (komende 24 uur)

TLE

VersSource: Space-Track

Epoch: Sep 14, 2026, 11:11 UTC

1 22192U 92069D   26257.46605525 -.00000708  00000-0  00000-0 0  9993
2 22192  68.5771  80.8630 6402393 350.2937   6.0953  2.02824576246150

Volg SL-6 R/B(2) in realtime met AllMySat

Download on the App Store